TimeCDT,TemperatureF,Dew PointF,Humidity,Sea Level PressureIn,VisibilityMPH,Wind Direction,Wind SpeedMPH,Gust SpeedMPH,PrecipitationIn,Events,Conditions,WindDirDegrees,DateUTC
12:52 AM,66.0,63.0,90,29.89,10.0,SSE,9.2,-,N/A,,Clear,150,2013-03-17 05:52:00
1:52 AM,64.9,62.1,90,29.88,10.0,SSE,8.1,-,N/A,,Clear,150,2013-03-17 06:52:00
2:52 AM,64.9,63.0,93,29.86,10.0,SSE,8.1,-,N/A,,Clear,150,2013-03-17 07:52:00
3:52 AM,66.0,64.0,93,29.84,10.0,SSE,9.2,-,N/A,,Clear,150,2013-03-17 08:52:00
4:47 AM,64.4,64.4,100,29.84,10.0,SSE,8.1,-,N/A,,Mostly Cloudy,150,2013-03-17 09:47:00
4:52 AM,64.9,63.0,93,29.83,10.0,SSE,8.1,-,N/A,,Mostly Cloudy,150,2013-03-17 09:52:00
5:00 AM,64.4,64.4,100,29.83,10.0,SSE,9.2,-,N/A,,Scattered Clouds,160,2013-03-17 10:00:00
5:52 AM,66.0,64.9,96,29.84,10.0,SSE,10.4,-,N/A,,Partly Cloudy,160,2013-03-17 10:52:00
6:52 AM,66.0,64.0,93,29.84,10.0,SSE,9.2,-,N/A,,Clear,150,2013-03-17 11:52:00
7:52 AM,64.9,64.0,97,29.85,5.0,SSE,8.1,-,N/A,,Partly Cloudy,150,2013-03-17 12:52:00
8:52 AM,66.0,64.9,96,29.86,9.0,SSE,9.2,-,N/A,,Clear,160,2013-03-17 13:52:00
9:37 AM,68.0,66.2,94,29.87,9.0,SSE,10.4,-,N/A,,Mostly Cloudy,160,2013-03-17 14:37:00
9:52 AM,69.1,66.9,93,29.87,10.0,South,9.2,-,N/A,,Clear,170,2013-03-17 14:52:00
10:52 AM,70.0,66.9,90,29.87,10.0,SE,13.8,-,N/A,,Clear,140,2013-03-17 15:52:00
11:52 AM,73.0,66.9,81,29.87,10.0,SSE,13.8,-,N/A,,Clear,150,2013-03-17 16:52:00
12:52 PM,72.0,66.9,84,29.85,10.0,SSE,13.8,-,N/A,,Overcast,150,2013-03-17 17:52:00
1:52 PM,73.9,68.0,82,29.83,10.0,SSE,13.8,-,N/A,,Overcast,160,2013-03-17 18:52:00
2:06 PM,73.4,68.0,83,29.82,10.0,SSE,13.8,-,N/A,,Overcast,160,2013-03-17 19:06:00
2:52 PM,72.0,66.9,84,29.81,10.0,SSE,12.7,-,N/A,,Overcast,160,2013-03-17 19:52:00
3:07 PM,73.4,68.0,83,29.79,10.0,SSE,12.7,-,N/A,,Overcast,160,2013-03-17 20:07:00
3:14 PM,73.4,68.0,83,29.79,10.0,SSE,15.0,-,N/A,,Overcast,150,2013-03-17 20:14:00
3:38 PM,75.2,68.0,78,29.78,10.0,SSE,15.0,-,N/A,,Mostly Cloudy,150,2013-03-17 20:38:00
3:52 PM,73.9,66.9,79,29.77,10.0,SSE,16.1,-,N/A,,Mostly Cloudy,150,2013-03-17 20:52:00
4:52 PM,73.0,66.9,81,29.76,10.0,SSE,15.0,-,N/A,,Overcast,160,2013-03-17 21:52:00
5:52 PM,71.1,66.0,84,29.75,10.0,SSE,13.8,-,N/A,,Mostly Cloudy,150,2013-03-17 22:52:00
6:52 PM,69.1,66.0,90,29.75,10.0,SSE,13.8,-,N/A,,Overcast,150,2013-03-17 23:52:00
7:52 PM,68.0,66.0,93,29.75,10.0,SSE,12.7,-,N/A,,Mostly Cloudy,150,2013-03-18 00:52:00
8:52 PM,66.9,66.0,97,29.78,8.0,SSE,10.4,-,N/A,,Overcast,150,2013-03-18 01:52:00
9:20 PM,66.2,66.2,100,29.78,7.0,SSE,10.4,-,N/A,,Overcast,150,2013-03-18 02:20:00
9:52 PM,66.9,66.0,97,29.78,6.0,SSE,10.4,-,N/A,,Overcast,150,2013-03-18 02:52:00
10:04 PM,66.2,66.2,100,29.79,6.0,SSE,9.2,-,N/A,,Overcast,150,2013-03-18 03:04:00
10:42 PM,66.2,66.2,100,29.80,1.8,SSE,8.1,-,N/A,,Overcast,160,2013-03-18 03:42:00
10:52 PM,66.9,66.9,100,29.81,1.0,SSE,6.9,-,N/A,,Mist,160,2013-03-18 03:52:00
11:34 PM,66.2,66.2,100,29.81,3.0,SSE,6.9,-,N/A,,Overcast,160,2013-03-18 04:34:00
11:50 PM,66.2,66.2,100,29.80,2.0,SSE,6.9,-,N/A,,Overcast,150,2013-03-18 04:50:00
11:52 PM,66.0,66.0,100,29.81,2.0,SSE,6.9,-,N/A,,Overcast,160,2013-03-18 04:52:00